| time (UTC) | temp F | wind direction | speed knots | gust knots | rain 1hr in | rain 24hr in | rain mn in | humidity % | barometer mb |
| 20260503230024 | 46 | 315 | 0.0 | 0.0 | 0.00 | 0.00 | 0.00 | 66 | 1015.8 |
| 20260503225021 | 46 | 315 | 0.0 | 0.0 | 0.00 | 0.00 | 0.00 | 65 | 1016.0 |
| 20260503224530 | 46 | 315 | 0.0 | 0.0 | 0.00 | 0.00 | 0.00 | 66 | 1016.1 |
| 20260503223015 | 46 | 315 | 0.0 | 0.0 | 0.00 | 0.00 | 0.00 | 64 | 1016.2 |
| 20260503222022 | 46 | 315 | 0.0 | 0.0 | 0.00 | 0.00 | 0.00 | 63 | 1016.2 |
| 20260503221519 | 46 | 315 | 0.0 | 0.0 | 0.00 | 0.00 | 0.00 | 63 | 1016.1 |
| 20260503221028 | 46 | 315 | 0.0 | 0.0 | 0.00 | 0.00 | 0.00 | 63 | 1016.2 |
| 20260503220527 | 46 | 315 | 0.0 | 0.0 | 0.00 | 0.00 | 0.00 | 63 | 1016.3 |
| 20260503220027 | 46 | 315 | 0.0 | 0.0 | 0.00 | 0.00 | 0.00 | 64 | 1016.3 |
| 20260503215518 | 46 | 315 | 0.0 | 0.0 | 0.00 | 0.00 | 0.00 | 64 | 1016.4 |
| 20260503215025 | 46 | 315 | 0.0 | 0.0 | 0.00 | 0.00 | 0.00 | 65 | 1016.4 |
| 20260503214533 | 45 | 315 | 0.0 | 0.0 | 0.00 | 0.00 | 0.00 | 67 | 1016.5 |
| 20260503214033 | 45 | 315 | 0.0 | 0.0 | 0.00 | 0.00 | 0.00 | 69 | 1016.6 |
| 20260503213514 | 44 | 315 | 0.0 | 0.0 | 0.00 | 0.00 | 0.00 | 71 | 1016.6 |
| 20260503213031 | 44 | 293 | 0.0 | 0.0 | 0.00 | 0.00 | 0.00 | 72 | 1016.5 |
| 20260503212522 | 44 | 293 | 0.0 | 0.0 | 0.00 | 0.00 | 0.00 | 71 | 1016.5 |
| 20260503212023 | 44 | 293 | 0.0 | 0.0 | 0.00 | 0.00 | 0.00 | 70 | 1016.5 |
| 20260503211512 | 44 | 293 | 0.0 | 0.0 | 0.00 | 0.00 | 0.00 | 70 | 1016.5 |
| 20260503211020 | 45 | 293 | 0.0 | 0.0 | 0.00 | 0.00 | 0.00 | 70 | 1016.4 |
| 20260503210532 | 45 | 293 | 0.0 | 0.0 | 0.00 | 0.00 | 0.00 | 70 | 1016.4 |
| 20260503210024 | 45 | 293 | 0.0 | 0.0 | 0.00 | 0.00 | 0.00 | 69 | 1016.3 |
| 20260503205523 | 45 | 293 | 0.0 | 0.0 | 0.00 | 0.00 | 0.00 | 68 | 1016.3 |
| 20260503205029 | 45 | 293 | 0.0 | 0.0 | 0.00 | 0.00 | 0.00 | 68 | 1016.4 |
| 20260503204521 | 46 | 293 | 0.0 | 0.0 | 0.00 | 0.00 | 0.00 | 66 | 1016.4 |
| 20260503204029 | 46 | 293 | 0.0 | 0.0 | 0.00 | 0.00 | 0.00 | 66 | 1016.5 |
| 20260503203522 | 46 | 293 | 0.0 | 0.0 | 0.00 | 0.00 | 0.00 | 64 | 1016.5 |
| 20260503203012 | 47 | 293 | 0.0 | 0.0 | 0.00 | 0.00 | 0.00 | 62 | 1016.6 |
| 20260503202528 | 47 | 293 | 0.0 | 0.0 | 0.00 | 0.00 | 0.00 | 59 | 1016.6 |
| 20260503202020 | 47 | 293 | 0.0 | 0.0 | 0.00 | 0.00 | 0.00 | 59 | 1016.5 |
| 20260503201527 | 47 | 293 | 0.0 | 0.0 | 0.00 | 0.00 | 0.00 | 58 | 1016.5 |
| 20260503201033 | 47 | 293 | 0.0 | 0.0 | 0.00 | 0.00 | 0.00 | 58 | 1016.5 |
| 20260503200517 | 48 | 293 | 0.0 | 0.0 | 0.00 | 0.00 | 0.00 | 58 | 1016.6 |
| 20260503195531 | 48 | 293 | 0.0 | 0.0 | 0.00 | 0.00 | 0.00 | 56 | 1016.5 |
| 20260503195030 | 49 | 293 | 0.0 | 0.0 | 0.00 | 0.00 | 0.00 | 55 | 1016.6 |
| 20260503194029 | 49 | 158 | 0.0 | 0.0 | 0.00 | 0.00 | 0.00 | 53 | 1016.5 |
| 20260503193521 | 49 | 158 | 0.0 | 0.0 | 0.00 | 0.00 | 0.00 | 52 | 1016.5 |
| 20260503192518 | 48 | 158 | 0.0 | 0.0 | 0.00 | 0.00 | 0.00 | 52 | 1016.5 |
| 20260503192026 | 49 | 158 | 0.0 | 0.0 | 0.00 | 0.00 | 0.00 | 52 | 1016.3 |
| 20260503191509 | 49 | 158 | 0.0 | 0.0 | 0.00 | 0.00 | 0.00 | 50 | 1016.5 |
| 20260503191025 | 50 | 158 | 0.0 | 0.0 | 0.00 | 0.00 | 0.00 | 49 | 1016.3 |
| 20260503190028 | 50 | 158 | 0.0 | 0.0 | 0.00 | 0.00 | 0.00 | 48 | 1016.2 |
| 20260503185526 | 51 | 158 | 0.0 | 0.0 | 0.00 | 0.00 | 0.00 | 48 | 1016.1 |
| 20260503185032 | 51 | 158 | 0.0 | 0.0 | 0.00 | 0.00 | 0.00 | 48 | 1016.2 |
| 20260503184022 | 51 | 158 | 0.0 | 0.0 | 0.00 | 0.00 | 0.00 | 46 | 1016.2 |
| 20260503183029 | 51 | 158 | 0.0 | 0.0 | 0.00 | 0.00 | 0.00 | 47 | 1016.2 |
| 20260503182529 | 52 | 158 | 0.0 | 0.0 | 0.00 | 0.00 | 0.00 | 47 | 1016.1 |
| 20260503182020 | 52 | 158 | 0.0 | 0.0 | 0.00 | 0.00 | 0.00 | 46 | 1016.1 |
| 20260503181019 | 53 | 158 | 0.0 | 0.0 | 0.00 | 0.00 | 0.00 | 45 | 1016.0 |
| 20260503180509 | 53 | 158 | 0.0 | 0.0 | 0.00 | 0.00 | 0.00 | 45 | 1016.0 |
| 20260503180009 | 53 | 158 | 0.0 | 0.0 | 0.00 | 0.00 | 0.00 | 45 | 1016.1 |
| 20260503175519 | 53 | 158 | 0.0 | 0.0 | 0.00 | 0.00 | 0.00 | 44 | 1016.1 |
| 20260503174517 | 54 | 158 | 0.0 | 0.0 | 0.00 | 0.00 | 0.00 | 43 | 1016.0 |
| 20260503174024 | 54 | 158 | 0.0 | 0.0 | 0.00 | 0.00 | 0.00 | 43 | 1015.9 |
| 20260503173515 | 55 | 158 | 0.0 | 0.0 | 0.00 | 0.00 | 0.00 | 43 | 1015.9 |
| 20260503173023 | 55 | 158 | 0.0 | 0.0 | 0.00 | 0.00 | 0.00 | 42 | 1016.1 |
| 20260503172523 | 55 | 158 | 0.0 | 0.0 | 0.00 | 0.00 | 0.00 | 41 | 1015.9 |
| 20260503172029 | 55 | 158 | 0.0 | 0.0 | 0.00 | 0.00 | 0.00 | 40 | 1015.9 |
| 20260503171513 | 56 | 158 | 0.0 | 0.0 | 0.00 | 0.00 | 0.00 | 39 | 1015.9 |
| 20260503171036 | 56 | 158 | 0.0 | 0.0 | 0.00 | 0.00 | 0.00 | 39 | 1016.0 |
| 20260503170528 | 56 | 158 | 0.0 | 0.0 | 0.00 | 0.00 | 0.00 | 38 | 1016.0 |
| 20260503150522 | 58 | 203 | 0.0 | 0.0 | 0.00 | 0.00 | 0.00 | 34 | 1016.5 |
| 20260503130528 | 56 | 203 | 0.0 | 0.0 | 0.00 | 0.00 | 0.00 | 35 | 1017.7 |
| 20260503110524 | 56 | 203 | 0.0 | 0.0 | 0.00 | 0.04 | 0.00 | 35 | 1019.1 |
| 20260503081537 | 53 | 0 | 3.5 | 3.5 | 0.00 | 0.06 | 0.00 | 44 | 1020.5 |
| 20260503080509 | 53 | 158 | 0.0 | 0.0 | 0.00 | 0.06 | 0.00 | 51 | 1020.6 |
| 20260503072533 | 50 | 0 | 0.0 | 0.0 | 0.00 | 0.06 | 0.00 | 64 | 1020.6 |
| 20260503072023 | 50 | 0 | 0.0 | 0.0 | 0.00 | 0.06 | 0.00 | 61 | 1020.5 |
| 20260503071529 | 52 | 113 | 0.9 | 0.9 | 0.00 | 0.06 | 0.00 | 60 | 1020.5 |
| 20260503071029 | 51 | 113 | 0.0 | 0.0 | 0.00 | 0.06 | 0.00 | 62 | 1020.6 |
| 20260503070544 | 50 | 23 | 0.0 | 0.0 | 0.00 | 0.06 | 0.00 | 63 | 1020.6 |
| 20260503055018 | 42 | 90 | 0.0 | 0.0 | 0.00 | 0.06 | 0.00 | 76 | 1020.7 |
| 20260503054534 | 42 | 90 | 0.9 | 0.9 | 0.00 | 0.06 | 0.00 | 73 | 1020.5 |
| 20260503054033 | 42 | 90 | 0.0 | 0.0 | 0.00 | 0.06 | 0.00 | 76 | 1020.5 |
| 20260503053513 | 40 | 90 | 0.0 | 0.0 | 0.00 | 0.06 | 0.00 | 77 | 1020.5 |
| 20260503053022 | 42 | 90 | 0.0 | 0.0 | 0.00 | 0.06 | 0.00 | 77 | 1020.5 |
| 20260503052521 | 40 | 90 | 0.0 | 0.0 | 0.00 | 0.06 | 0.00 | 79 | 1020.6 |
| 20260503052028 | 39 | 90 | 0.0 | 0.0 | 0.00 | 0.06 | 0.00 | 79 | 1020.6 |
| 20260503051520 | 39 | 90 | 0.0 | 0.0 | 0.00 | 0.06 | 0.00 | 81 | 1020.6 |
| 20260503051027 | 38 | 90 | 0.0 | 0.0 | 0.00 | 0.06 | 0.00 | 82 | 1020.5 |
| 20260503050542 | 38 | 90 | 0.0 | 0.0 | 0.00 | 0.06 | 0.00 | 84 | 1020.5 |
| 20260503050050 | 37 | 90 | 0.0 | 0.0 | 0.00 | 0.06 | 0.00 | 86 | 1020.5 |
| 20260503045524 | 36 | 90 | 0.0 | 0.0 | 0.00 | 0.06 | 0.00 | 90 | 1020.5 |
| 20260503045024 | 34 | 90 | 0.0 | 0.0 | 0.00 | 0.06 | 0.00 | 90 | 1020.5 |
| 20260503044527 | 33 | 90 | 0.0 | 0.0 | 0.00 | 0.06 | 0.00 | 91 | 1020.5 |
| 20260503044034 | 33 | 90 | 0.0 | 0.0 | 0.00 | 0.06 | 0.00 | 91 | 1020.4 |
| 20260503043521 | 33 | 90 | 0.0 | 0.0 | 0.00 | 0.06 | 0.00 | 91 | 1020.4 |
| 20260503042527 | 32 | 90 | 0.0 | 0.0 | 0.00 | 0.06 | 0.00 | 92 | 1020.4 |
| 20260503041540 | 31 | 90 | 0.0 | 0.0 | 0.00 | 0.06 | 0.00 | 92 | 1020.3 |
| 20260503041010 | 31 | 90 | 0.0 | 0.0 | 0.00 | 0.06 | 0.00 | 92 | 1020.2 |
| 20260503040513 | 31 | 90 | 0.0 | 0.0 | 0.00 | 0.06 | 0.00 | 92 | 1020.1 |
| 20260503040026 | 31 | 90 | 0.0 | 0.0 | 0.00 | 0.06 | 0.00 | 92 | 1020.1 |
| 20260503035528 | 31 | 90 | 0.0 | 0.0 | 0.00 | 0.06 | 0.00 | 92 | 1020.1 |
| 20260503035040 | 31 | 90 | 0.0 | 0.0 | 0.00 | 0.06 | 0.00 | 92 | 1020.2 |
| 20260503034518 | 30 | 90 | 0.0 | 0.0 | 0.00 | 0.06 | 0.00 | 92 | 1020.1 |
| 20260503034028 | 30 | 90 | 0.0 | 0.0 | 0.00 | 0.06 | 0.00 | 92 | 1020.1 |
| 20260503033524 | 29 | 90 | 0.0 | 0.0 | 0.00 | 0.06 | 0.00 | 92 | 1020.0 |
| 20260503032521 | 29 | 90 | 0.0 | 0.0 | 0.00 | 0.06 | 0.00 | 92 | 1019.8 |
| 20260503032015 | 29 | 90 | 0.0 | 0.0 | 0.00 | 0.06 | 0.00 | 92 | 1019.9 |
| 20260503031528 | 29 | 90 | 0.0 | 0.0 | 0.00 | 0.06 | 0.00 | 92 | 1019.8 |
| 20260503031013 | 29 | 90 | 0.0 | 0.0 | 0.00 | 0.06 | 0.00 | 92 | 1019.8 |
| 20260503030533 | 29 | 90 | 0.0 | 0.0 | 0.00 | 0.06 | 0.00 | 92 | 1019.8 |
| 20260503030157 | 29 | 90 | 0.0 | 0.0 | 0.00 | 0.06 | 0.00 | 91 | 1019.8 |
| 20260503025531 | 29 | 90 | 0.0 | 0.0 | 0.00 | 0.06 | 0.00 | 91 | 1019.6 |
| 20260503025026 | 29 | 90 | 0.0 | 0.0 | 0.00 | 0.06 | 0.00 | 91 | 1019.7 |
| 20260503024513 | 30 | 90 | 0.0 | 0.0 | 0.00 | 0.06 | 0.00 | 91 | 1019.6 |
| 20260503024015 | 30 | 90 | 0.0 | 0.0 | 0.00 | 0.06 | 0.00 | 91 | 1019.7 |
| 20260503023522 | 30 | 90 | 0.0 | 0.0 | 0.00 | 0.06 | 0.00 | 91 | 1019.7 |
| 20260503023027 | 30 | 90 | 0.0 | 0.0 | 0.00 | 0.06 | 0.00 | 91 | 1019.6 |
| 20260503022512 | 30 | 90 | 0.0 | 0.0 | 0.00 | 0.06 | 0.00 | 91 | 1019.5 |
| 20260503021515 | 30 | 90 | 0.0 | 0.0 | 0.00 | 0.06 | 0.00 | 91 | 1019.5 |
| 20260503021035 | 30 | 90 | 0.0 | 0.0 | 0.00 | 0.06 | 0.00 | 91 | 1019.5 |
| 20260503020517 | 30 | 90 | 0.0 | 0.0 | 0.00 | 0.06 | 0.00 | 91 | 1019.5 |
| 20260503020011 | 30 | 90 | 0.0 | 0.0 | 0.00 | 0.06 | 0.00 | 91 | 1019.6 |
| 20260503015018 | 31 | 90 | 0.0 | 0.0 | 0.00 | 0.06 | 0.00 | 91 | 1019.5 |
| 20260503014521 | 31 | 90 | 0.0 | 0.0 | 0.00 | 0.06 | 0.00 | 91 | 1019.5 |
| 20260503014033 | 31 | 90 | 0.0 | 0.0 | 0.00 | 0.06 | 0.00 | 91 | 1019.5 |
| 20260503013538 | 31 | 90 | 0.0 | 0.0 | 0.00 | 0.06 | 0.00 | 91 | 1019.4 |
| 20260503013025 | 31 | 90 | 0.0 | 0.0 | 0.00 | 0.06 | 0.00 | 91 | 1019.5 |
| 20260503012512 | 31 | 90 | 0.0 | 0.0 | 0.00 | 0.06 | 0.00 | 91 | 1019.7 |
| 20260503012030 | 32 | 90 | 0.0 | 0.0 | 0.00 | 0.06 | 0.00 | 91 | 1019.8 |
| 20260503011518 | 32 | 90 | 0.0 | 0.0 | 0.00 | 0.06 | 0.00 | 91 | 1019.7 |
| 20260503011020 | 32 | 90 | 0.0 | 0.0 | 0.00 | 0.06 | 0.00 | 91 | 1019.8 |
| 20260503010524 | 32 | 90 | 0.0 | 0.0 | 0.00 | 0.06 | 0.00 | 91 | 1019.7 |
| 20260503010018 | 32 | 90 | 0.0 | 0.0 | 0.00 | 0.06 | 0.00 | 90 | 1019.7 |
| 20260503005515 | 32 | 90 | 0.0 | 0.0 | 0.00 | 0.06 | 0.00 | 90 | 1019.6 |
| 20260503005021 | 32 | 90 | 0.0 | 0.0 | 0.00 | 0.06 | 0.00 | 91 | 1019.6 |
| 20260503004516 | 33 | 90 | 0.0 | 0.0 | 0.00 | 0.06 | 0.00 | 91 | 1019.5 |
| 20260503003523 | 33 | 90 | 0.0 | 0.0 | 0.00 | 0.06 | 0.00 | 91 | 1019.6 |
| 20260503002512 | 33 | 90 | 0.0 | 0.0 | 0.00 | 0.06 | 0.00 | 91 | 1019.5 |
| 20260503002015 | 33 | 90 | 0.0 | 0.0 | 0.00 | 0.06 | 0.00 | 91 | 1019.6 |
| 20260503001537 | 33 | 90 | 0.0 | 0.0 | 0.00 | 0.06 | 0.00 | 91 | 1019.5 |
| 20260503001034 | 33 | 90 | 0.0 | 0.0 | 0.00 | 0.06 | 0.00 | 91 | 1019.6 |
| 20260503000025 | 33 | 90 | 0.0 | 0.0 | 0.00 | 0.06 | 0.00 | 91 | 1019.5 |
| 20260502235525 | 33 | 90 | 0.0 | 0.0 | 0.00 | 0.06 | 0.00 | 91 | 1019.6 |
| 20260502235021 | 33 | 90 | 0.0 | 0.0 | 0.00 | 0.06 | 0.00 | 91 | 1019.5 |
| 20260502234036 | 33 | 90 | 0.0 | 0.0 | 0.00 | 0.06 | 0.00 | 91 | 1019.7 |
| 20260502233535 | 33 | 90 | 0.0 | 0.0 | 0.00 | 0.06 | 0.00 | 90 | 1019.8 |
| 20260502233028 | 34 | 90 | 0.0 | 0.0 | 0.00 | 0.06 | 0.00 | 90 | 1019.8 |
| 20260502232518 | 34 | 90 | 0.0 | 0.0 | 0.00 | 0.06 | 0.00 | 90 | 1019.8 |
| 20260502232033 | 34 | 90 | 0.0 | 0.0 | 0.00 | 0.06 | 0.00 | 90 | 1019.6 |
| 20260502231532 | 34 | 90 | 0.0 | 0.0 | 0.00 | 0.06 | 0.00 | 90 | 1019.6 |
| 20260502231028 | 34 | 90 | 0.0 | 0.0 | 0.00 | 0.06 | 0.00 | 90 | 1019.6 |